This demonstration page uses our WeatherBlox Daily Observations layout. Learn more.

Hourly Observations for January 2, 2020

Temp ( °F °C ) Dew Point ( °F °C ) Humidity (%) Winds ( mph kmh ) Pressure ( in mb ) Visibility ( mi km ) Precip ( " mm )
12:15 am 00:15 Clear 30 -1 25 -4 80 80 Calm 29.97 1015 10 16.0934 0 0
12:35 am 00:35 Clear 28 -2 25 -4 86 86 Calm 29.98 1015 10 16.0934 0 0
12:55 am 00:55 Clear 28 -2 27 -3 93 93 WSW 5 7 29.98 1015 10 16.0934 0 0
1:15 am 01:15 Clear 28 -2 25 -4 86 86 SW 5 7 29.98 1015 10 16.0934 0 0
1:35 am 01:35 Clear 28 -2 25 -4 86 86 SSW 3 6 29.99 1015 10 16.0934 0 0
1:55 am 01:55 Clear 28 -2 25 -4 86 86 SW 3 6 29.99 1015 10 16.0934 0 0
2:15 am 02:15 Clear 28 -2 25 -4 86 86 Calm 29.99 1015 10 16.0934 0 0
2:35 am 02:35 Clear 28 -2 27 -3 93 93 Calm 29.99 1015 10 16.0934 0 0
2:55 am 02:55 Clear 28 -2 23 -5 80 80 Calm 30 1016 10 16.0934 0 0
3:15 am 03:15 Clear 27 -3 25 -4 93 93 W 3 6 30 1016 10 16.0934 0 0
3:35 am 03:35 Clear 27 -3 27 -3 100 100 Calm 30 1016 10 16.0934 0 0
3:55 am 03:55 Clear 28 -2 25 -4 86 86 Calm 30 1016 10 16.0934 0 0
4:15 am 04:15 Clear 28 -2 25 -4 86 86 NNE 3 6 29.99 1015 10 16.0934 0 0
4:35 am 04:35 Clear 27 -3 23 -5 86 86 Calm 30 1016 10 16.0934 0 0
4:55 am 04:55 Clear 27 -3 25 -4 93 93 NE 5 7 30 1016 10 16.0934 0 0
5:15 am 05:15 Clear 27 -3 25 -4 93 93 ENE 3 6 30 1016 10 16.0934 0 0
5:35 am 05:35 Clear 25 -4 23 -5 93 93 Calm 30.02 1017 10 16.0934 0 0
5:55 am 05:55 Clear 23 -5 23 -5 100 100 Calm 30.02 1017 10 16.0934 0 0
6:15 am 06:15 Clear 25 -4 25 -4 100 100 Calm 30.03 1017 10 16.0934 0 0
6:35 am 06:35 Clear 25 -4 25 -4 100 100 Calm 30.02 1017 10 16.0934 0 0
6:55 am 06:55 Clear 27 -3 25 -4 93 93 Calm 30.01 1016 10 16.0934 0 0
7:15 am 07:15 Clear 25 -4 23 -5 93 93 NNW 3 6 30.02 1017 10 16.0934 0 0
7:35 am 07:35 Sunny 27 -3 25 -4 93 93 Calm 30.03 1017 10 16.0934 0 0
7:55 am 07:55 Sunny 27 -3 25 -4 93 93 Calm 30.03 1017 10 16.0934 0 0
8:15 am 08:15 Sunny 27 -3 25 -4 93 93 Calm 30.03 1017 10 16.0934 0 0
8:35 am 08:35 Sunny 28 -2 27 -3 93 93 Calm 30.03 1017 10 16.0934 0 0
8:55 am 08:55 Sunny 28 -2 28 -2 100 100 W 5 7 30.05 1017 10 16.0934 0 0
9:15 am 09:15 Sunny 30 -1 27 -3 86 86 Calm 30.03 1017 10 16.0934 0 0
9:35 am 09:35 Sunny 32 0 28 -2 87 87 Calm 30.04 1017 10 16.0934 0 0
9:55 am 09:55 Sunny 32 0 28 -2 87 87 Calm 30.03 1017 10 16.0934 0 0
10:15 am 10:15 Sunny 34 1 30 -1 87 87 Calm 30.03 1017 10 16.0934 0 0
10:35 am 10:35 Sunny 36 2 30 -1 81 81 Calm 30.03 1017 10 16.0934 0 0
10:55 am 10:55 Sunny 37 3 30 -1 75 75 Calm 30.01 1016 10 16.0934 0 0
11:15 am 11:15 Sunny 37 3 28 -2 70 70 S 3 6 30 1016 10 16.0934 0 0
11:35 am 11:35 Sunny 41 5 30 -1 66 66 S 3 6 29.99 1016 10 16.0934 0 0
11:55 am 11:55 Sunny 45 7 30 -1 57 57 Calm 29.97 1015 10 16.0934 0 0
12:15 pm 12:15 Sunny 45 7 30 -1 57 57 Calm 29.96 1015 10 16.0934 0 0
12:35 pm 12:35 Sunny 46 8 30 -1 53 53 Calm 29.95 1014 10 16.0934 0 0
12:55 pm 12:55 Sunny 46 8 32 0 57 57 Calm 29.94 1014 10 16.0934 0 0
1:15 pm 13:15 Sunny 48 9 32 0 54 54 SSE 3 6 29.93 1013 10 16.0934 0 0
1:35 pm 13:35 Sunny 48 9 32 0 54 54 Calm 29.93 1013 10 16.0934 0 0
1:55 pm 13:55 Sunny 48 9 32 0 54 54 S 5 7 29.92 1013 10 16.0934 0 0
2:15 pm 14:15 Sunny 50 10 32 0 50 50 S 8 13 29.91 1013 10 16.0934 0 0
2:35 pm 14:35 Sunny 50 10 32 0 50 50 SSE 8 13 29.91 1013 10 16.0934 0 0
2:55 pm 14:55 Sunny 50 10 34 1 54 54 S 7 11 29.92 1013 10 16.0934 0 0
3:15 pm 15:15 Sunny 48 9 34 1 58 58 SSW 6 9 29.94 1014 10 16.0934 0 0
3:35 pm 15:35 Sunny 48 9 32 0 54 54 S 8 13 29.93 1013 10 16.0934 0 0
3:55 pm 15:55 Sunny 48 9 32 0 54 54 S 8 13 29.92 1013 10 16.0934 0 0
4:15 pm 16:15 Sunny 48 9 32 0 54 54 S 5 7 29.92 1013 10 16.0934 0 0
4:35 pm 16:35 Sunny 46 8 34 1 62 62 S 3 6 29.93 1014 10 16.0934 0 0
4:55 pm 16:55 Sunny 46 8 32 0 57 57 S 5 7 29.92 1013 10 16.0934 0 0
5:15 pm 17:15 Clear 46 8 34 1 62 62 S 5 7 29.93 1014 10 16.0934 0 0
5:35 pm 17:35 Clear 46 8 34 1 62 62 S 6 9 29.92 1013 10 16.0934 0 0
5:55 pm 17:55 Clear 46 8 34 1 62 62 SW 5 7 29.92 1013 10 16.0934 0 0
6:15 pm 18:15 Clear 46 8 34 1 62 62 Calm 29.91 1013 10 16.0934 0 0
6:35 pm 18:35 Clear 46 8 34 1 62 62 S 5 7 29.9 1012 10 16.0934 0 0
6:55 pm 18:55 Clear 46 8 34 1 62 62 S 6 9 29.89 1012 10 16.0934 0 0
7:15 pm 19:15 Clear 46 8 34 1 62 62 SSW 7 11 29.91 1013 10 16.0934 0 0
7:35 pm 19:35 Partly Cloudy 46 8 36 2 66 66 S 6 9 29.91 1013 10 16.0934 0 0
7:55 pm 19:55 Partly Cloudy 46 8 34 1 62 62 S 3 6 29.9 1012 10 16.0934 0 0
8:15 pm 20:15 Clear 46 8 34 1 62 62 S 5 7 29.89 1012 10 16.0934 0 0
8:35 pm 20:35 Clear 46 8 36 2 66 66 SSW 6 9 29.88 1012 10 16.0934 0 0
8:55 pm 20:55 Clear 46 8 36 2 66 66 SSW 3 6 29.88 1012 10 16.0934 0 0
9:15 pm 21:15 Mostly Cloudy 46 8 36 2 66 66 SW 5 7 29.89 1012 10 16.0934 0 0
9:35 pm 21:35 Partly Cloudy 45 7 36 2 71 71 Calm 29.89 1012 10 16.0934 0 0
9:55 pm 21:55 Mostly Cloudy 45 7 36 2 71 71 Calm 29.89 1012 10 16.0934 0 0
10:15 pm 22:15 Mostly Cloudy 46 8 36 2 66 66 WSW 3 6 29.9 1012 10 16.0934 0 0
10:35 pm 22:35 Cloudy 46 8 37 3 71 71 SSW 8 13 29.89 1012 10 16.0934 0 0
10:55 pm 22:55 Mostly Cloudy 48 9 36 2 62 62 S 8 13 29.88 1012 10 16.0934 0 0
11:15 pm 23:15 Mostly Cloudy 48 9 36 2 62 62 SSW 6 9 29.87 1011 10 16.0934 0 0
11:35 pm 23:35 Mostly Cloudy 50 10 36 2 58 58 SSW 10 17 29.89 1012 10 16.0934 0 0
11:55 pm 23:55 Cloudy 50 10 36 2 58 58 SSW 9 15 29.89 1012 10 16.0934 0 0

Powered by AerisWeather